Cando, ND

5:59 AM CST on January 23, 2017 (GMT -0600)
Cando

Weather History for K9D7 - January, 2014

Change the Weather History Date:

Wednesday, January 15, 2014

  Actual Average (KDVL) Record (KDVL)
Temperature  
Mean Temperature 15 °F -  
Max Temperature 39 °F 18 °F 45 °F (1973)
Min Temperature -9 °F 0 °F -33 °F (1971)
Degree Days  
Heating Degree Days 50    
Moisture  
Dew Point 15 °F    
Average Humidity 81    
Maximum Humidity 93    
Minimum Humidity 65    
Precipitation  
Precipitation 0.01 in - - ()
Sea Level Pressure  
Sea Level Pressure 29.57 in    
Wind  
Wind Speed 15 mph (WSW)    
Max Wind Speed 39 mph    
Max Gust Speed 50 mph    
Visibility 8 miles    
Events Rain , Snow    
Averages and records for this station are not official NWS values.
T = Trace of Precipitation, MM = Missing Value Source: NWS Daily Summary

Daily Weather History Graph

Daily Weather History Graph

Search for Another Location

Airport or City:

Trip Planner

Search our weather history database for the weather conditions in past years. The results will help you decide how hot, cold, wet, or windy it might be!

Date:

Astronomy

Jan. 15, 2014 Rise Set
Actual Time 8:23 AM CST 5:09 PM CST
Civil Twilight 7:48 AM CST 5:45 PM CST
Nautical Twilight 7:09 AM CST 6:24 PM CST
Astronomical Twilight 6:31 AM CST 7:01 PM CST
Moon 5:13 PM CST (1/15) 7:36 AM CST (1/15)
Length of Visible Light 9h 57m
Length of Day
8h 46m
Full, 100% of the Moon is Illuminated
Jan 15
Full
Jan 15
Full
Jan 23
Last Quarter
Jan 30
New
Feb 6
First Quarter

Hourly Weather History & Observations

Time (CST) Temp. Windchill Dew Point Humidity Pressure Visibility Wind Dir Wind Speed Gust Speed Precip Events Conditions
12:15 AM -9.4 °F -22.7 °F -13.0 °F 84% 30.14 in 10.0 mi West 5.8 mph - N/A   Clear
12:35 AM -9.4 °F -22.7 °F -13.0 °F 84% 30.13 in 10.0 mi West 5.8 mph - N/A   Clear
12:55 AM -9.4 °F -20.9 °F -13.0 °F 84% 30.11 in 10.0 mi WSW 4.6 mph - N/A   Clear
1:15 AM -9.4 °F -18.6 °F -13.0 °F 84% 30.08 in 10.0 mi WSW 3.5 mph - N/A   Clear
1:35 AM -9.4 °F -22.7 °F -13.0 °F 84% 30.07 in 10.0 mi WSW 5.8 mph - N/A   Clear
1:55 AM -9.4 °F -22.7 °F -13.0 °F 84% 30.06 in 10.0 mi WSW 5.8 mph - N/A   Clear
2:15 AM -9.4 °F -20.9 °F -13.0 °F 84% 30.05 in 10.0 mi WSW 4.6 mph - N/A   Clear
2:35 AM -9.4 °F -22.7 °F -13.0 °F 84% 30.06 in 10.0 mi SW 5.8 mph - N/A   Clear
2:55 AM -7.6 °F -18.8 °F -13.0 °F 77% 30.04 in 10.0 mi SW 4.6 mph - N/A   Clear
3:15 AM -9.4 °F -20.9 °F -13.0 °F 84% 30.01 in 10.0 mi South 4.6 mph - N/A   Partly Cloudy
3:35 AM -7.6 °F -23.4 °F -11.2 °F 84% 29.99 in 10.0 mi South 8.1 mph - N/A   Mostly Cloudy
3:55 AM -5.8 °F -22.4 °F -11.2 °F 77% 29.97 in 10.0 mi SSE 9.2 mph - N/A   Overcast
4:15 AM -2.2 °F -18.0 °F -7.6 °F 78% 29.96 in 10.0 mi South 9.2 mph - N/A   Overcast
4:35 AM -2.2 °F -16.8 °F -5.8 °F 85% 29.94 in 10.0 mi South 8.1 mph - N/A   Overcast
4:55 AM -0.4 °F -13.4 °F -4.0 °F 85% 29.94 in 10.0 mi SSW 6.9 mph - N/A   Overcast
5:15 AM 1.4 °F -11.3 °F -2.2 °F 85% 29.93 in 10.0 mi South 6.9 mph - N/A   Overcast
5:35 AM 1.4 °F -13.5 °F -2.2 °F 85% 29.92 in 10.0 mi South 9.2 mph - N/A   Overcast
5:55 AM 5.0 °F -10.0 °F -0.4 °F 78% 29.88 in 10.0 mi South 10.4 mph - N/A   Overcast
6:15 AM 5.0 °F -12.3 °F -0.4 °F 78% 29.85 in 5.0 mi South 13.8 mph - N/A   Overcast
6:35 AM 5.0 °F -11.6 °F 1.4 °F 85% 29.83 in 1.8 mi South 12.7 mph - N/A Snow Light Snow
6:55 AM 6.8 °F -9.3 °F 3.2 °F 85% 29.80 in 1.8 mi South 12.7 mph - N/A Snow Light Snow
7:15 AM 6.8 °F -10.7 °F 5.0 °F 92% 29.77 in 1.0 mi South 15.0 mph - N/A Snow Light Snow
7:35 AM 8.6 °F -10.0 °F 5.0 °F 85% 29.74 in 1.2 mi South 18.4 mph - 0.01 in Snow Light Snow
7:55 AM 8.6 °F -9.5 °F 6.8 °F 92% 29.73 in 1.0 mi South 17.3 mph - 0.01 in Snow Light Snow
8:15 AM 8.6 °F -8.9 °F 6.8 °F 92% 29.70 in 0.5 mi South 16.1 mph - N/A Snow Snow
8:35 AM 10.4 °F -7.2 °F 6.8 °F 85% 29.68 in 1.0 mi South 17.3 mph - N/A Snow Light Snow
8:55 AM 12.2 °F -4.3 °F 8.6 °F 85% 29.65 in 3.0 mi South 16.1 mph - N/A   Mostly Cloudy
9:15 AM 14.0 °F -3.0 °F 10.4 °F 86% 29.62 in 1.8 mi South 18.4 mph - N/A Snow Light Snow
9:35 AM 14.0 °F -2.5 °F 12.2 °F 93% 29.60 in 4.0 mi South 17.3 mph - N/A   Scattered Clouds
9:55 AM 17.6 °F 1.3 °F 15.8 °F 93% 29.58 in 2.5 mi South 19.6 mph - N/A   Mostly Cloudy
10:15 AM 17.6 °F 1.3 °F 15.8 °F 93% 29.55 in 9.0 mi SSW 19.6 mph - N/A   Mostly Cloudy
10:35 AM 19.4 °F 4.1 °F 15.8 °F 86% 29.52 in 5.0 mi SSW 18.4 mph - N/A Snow Light Snow
10:55 AM 19.4 °F 4.1 °F 17.6 °F 93% 29.46 in 10.0 mi South 18.4 mph - N/A   Mostly Cloudy
11:15 AM 23.0 °F 8.3 °F 19.4 °F 86% 29.46 in 10.0 mi SW 19.6 mph 24.2 mph N/A   Mostly Cloudy
11:35 AM 24.8 °F 9.3 °F 21.2 °F 86% 29.43 in 6.0 mi SW 24.2 mph 28.8 mph N/A   Scattered Clouds
11:55 AM 26.6 °F 12.0 °F 23.0 °F 86% 29.41 in 8.0 mi SW 23.0 mph - N/A   Partly Cloudy
12:15 PM 28.4 °F 14.1 °F 24.8 °F 86% 29.38 in 7.0 mi WSW 24.2 mph - N/A   Clear
12:35 PM 30.2 °F 17.4 °F 26.6 °F 86% 29.36 in 10.0 mi WSW 20.7 mph 26.5 mph N/A   Clear
12:55 PM 32.0 °F 18.9 °F 28.4 °F 87% 29.33 in 9.0 mi WSW 24.2 mph 31.1 mph N/A   Clear
1:15 PM 32.0 °F 19.8 °F 28.4 °F 87% 29.32 in 10.0 mi West 20.7 mph - N/A   Clear
1:35 PM 35.6 °F 23.7 °F 30.2 °F 81% 29.30 in 10.0 mi West 24.2 mph - N/A   Clear
1:55 PM 39.2 °F 27.6 °F 30.2 °F 70% 29.29 in 10.0 mi West 28.8 mph 34.5 mph N/A   Clear
2:15 PM 39.2 °F 27.2 °F 30.2 °F 70% 29.28 in 10.0 mi West 31.1 mph 36.8 mph N/A   Clear
2:35 PM 39.2 °F 28.0 °F 30.2 °F 70% 29.27 in 10.0 mi West 26.5 mph 31.1 mph N/A   Clear
2:55 PM 39.2 °F 27.8 °F 28.4 °F 65% 29.28 in 10.0 mi WNW 27.6 mph 34.5 mph N/A   Clear
3:15 PM 39.2 °F 27.4 °F 28.4 °F 65% 29.29 in 10.0 mi WNW 29.9 mph 38.0 mph N/A   Clear
3:35 PM 39.2 °F 27.2 °F 28.4 °F 65% 29.29 in 10.0 mi WNW 31.1 mph 40.3 mph N/A   Clear
3:55 PM 37.4 °F 24.6 °F 28.4 °F 70% 29.29 in 10.0 mi West 32.2 mph 42.6 mph N/A   Clear
4:15 PM 37.4 °F 24.2 °F 28.4 °F 70% 29.28 in 10.0 mi WNW 34.5 mph 44.9 mph N/A   Clear
4:35 PM 37.4 °F 24.6 °F 28.4 °F 70% 29.29 in 10.0 mi WNW 32.2 mph 42.6 mph N/A   Clear
4:55 PM 37.4 °F 24.8 °F 28.4 °F 70% 29.30 in 10.0 mi WNW 31.1 mph 36.8 mph N/A   Partly Cloudy
5:15 PM 37.4 °F 24.8 °F 28.4 °F 70% 29.30 in 10.0 mi WNW 31.1 mph 42.6 mph N/A   Partly Cloudy
5:35 PM 35.6 °F 23.0 °F 28.4 °F 75% 29.31 in 10.0 mi WNW 27.6 mph 35.7 mph N/A   Clear
5:55 PM 35.6 °F 22.7 °F 28.4 °F 75% 29.31 in 10.0 mi WNW 28.8 mph 36.8 mph N/A   Partly Cloudy
6:15 PM 35.6 °F 22.5 °F 28.4 °F 75% 29.30 in 10.0 mi WNW 29.9 mph 38.0 mph N/A   Partly Cloudy
6:35 PM 35.6 °F 23.2 °F 28.4 °F 75% 29.30 in 10.0 mi WNW 26.5 mph 38.0 mph N/A   Clear
6:55 PM 33.8 °F 21.0 °F 28.4 °F 81% 29.30 in 10.0 mi WNW 25.3 mph 32.2 mph N/A   Scattered Clouds
7:15 PM 33.8 °F 20.8 °F 28.4 °F 81% 29.30 in 10.0 mi WNW 26.5 mph 36.8 mph N/A   Mostly Cloudy
7:35 PM 35.6 °F 23.0 °F 28.4 °F 75% 29.30 in 10.0 mi WNW 27.6 mph 38.0 mph N/A   Overcast
7:55 PM 35.6 °F 23.2 °F 28.4 °F 75% 29.30 in 10.0 mi WNW 26.5 mph 32.2 mph N/A   Overcast
8:15 PM 35.6 °F 22.7 °F 28.4 °F 75% 29.29 in 10.0 mi WNW 28.8 mph 33.4 mph N/A   Overcast
8:35 PM 35.6 °F 22.7 °F 28.4 °F 75% 29.30 in 10.0 mi NW 28.8 mph 41.4 mph N/A   Overcast
8:55 PM 35.6 °F 24.2 °F 30.2 °F 81% 29.30 in 10.0 mi NW 21.9 mph 27.6 mph N/A Rain Light Rain
9:15 PM 35.6 °F 22.1 °F 30.2 °F 81% 29.29 in 8.0 mi WNW 32.2 mph - N/A Rain Light Rain
9:35 PM 33.8 °F 21.0 °F 30.2 °F 87% 29.30 in 10.0 mi NW 25.3 mph 41.4 mph N/A   Overcast
9:55 PM 33.8 °F 20.8 °F 30.2 °F 87% 29.30 in 9.0 mi WNW 26.5 mph 33.4 mph N/A   Overcast
10:15 PM 33.8 °F 20.1 °F 28.4 °F 81% 29.30 in 10.0 mi NW 29.9 mph 35.7 mph N/A   Mostly Cloudy
10:35 PM 35.6 °F 22.7 °F 28.4 °F 75% 29.31 in 10.0 mi NW 28.8 mph 40.3 mph N/A   Overcast
10:55 PM 33.8 °F 20.1 °F 28.4 °F 81% 29.32 in 10.0 mi NW 29.9 mph 35.7 mph N/A Rain Light Rain
11:15 PM 32.0 °F 16.7 °F 26.6 °F 80% 29.34 in 9.0 mi NNW 34.5 mph 49.5 mph N/A   Overcast
11:35 PM 32.0 °F 16.0 °F 24.8 °F 75% 29.36 in 10.0 mi NNW 39.1 mph 48.3 mph N/A   Overcast
11:55 PM 32.0 °F 18.1 °F 26.6 °F 80% 29.37 in 8.0 mi NW 27.6 mph 39.1 mph N/A Rain Light Rain